Home   Weather   Lustenau   Past weeks

Flag for Austria Past Weather in Lustenau, Vorarlberg, Austria — Yesterday and Last 2 Weeks

45 °F

Passing clouds.

Feels Like: 45 °F
Forecast: 38 / 54 °F
Wind: 1 mph from North

Location: Saint Gallen-Altenrhein

Current Time: Oct 21, 2016 at 8:32:53 PM

Latest Report: Oct 21, 2016 at 7:50 PM

Visibility: N/A

Pressure: 30.01 "Hg

Humidity: 100%

Dew Point: 45 °F

Location of LustenauLocation

Past Weather in Lustenau — Graph


Lustenau Temperature Yesterday

Maximum temperature yesterday: 55 °F (at 2:50 PM)
Minimum temperature yesterday: 41 °F (at 8:50 PM)
Average temperature yesterday: 48 °F

High & Low Weather Summary for the Past Weeks

High59 °F (Oct 15, 3:50 PM)100% (Oct 7, 1:50 AM)30.27 "Hg (Oct 7, 1:50 AM)
Low36 °F (Oct 13, 1:20 AM)51% (Oct 20, 3:20 PM)29.65 "Hg (Oct 14, 4:20 PM)
Average48 °F85%30.06 "Hg
* Reported Oct 6 7:20 PM — Oct 21 7:20 PM, Lustenau, Weather by CustomWeather, © 2016

Note: Actual official high and low records may vary slightly from our data, if they occured in-between our weather recording intervals... More about our weather records


Lustenau Weather History for the Previous 24 Hours

Scroll right to see more
Time TempWeatherWind HumidityBarometerVisibility
7:20 PM
Fri, Oct 21
46 °FPassing clouds.5 mph87%30.01 "HgN/A
6:50 PM46 °FLight rain. Passing clouds.3 mph87%30.01 "HgN/A
6:20 PM46 °FLight rain. Partly sunny.2 mph93%30.01 "Hg5 mi
5:50 PM46 °FPartly sunny.5 mph87%30.01 "HgN/A
5:20 PM46 °FPartly sunny.3 mph87%30.01 "HgN/A
4:50 PM46 °FSprinkles. Partly sunny.2 mph82%30.01 "HgN/A
4:20 PM46 °FSprinkles. Partly sunny.3 mph82%30.01 "HgN/A
3:50 PM46 °FBroken clouds.7 mph82%30.01 "HgN/A
3:20 PM48 °FBroken clouds.3 mph76%29.98 "HgN/A
2:50 PM46 °FSprinkles. Broken clouds.3 mph82%30.01 "HgN/A
2:20 PM46 °FSprinkles. More clouds than sun.3 mph82%30.01 "HgN/A
1:50 PM46 °FLight rain. More clouds than sun.5 mph82%29.98 "HgN/A
1:20 PM46 °FLight rain. More clouds than sun.6 mph87%30.01 "HgN/A
12:50 PM46 °FLight rain. Overcast.7 mph82%30.01 "HgN/A
12:20 PM46 °FSprinkles. Broken clouds.2 mph87%29.98 "HgN/A
11:50 AM46 °FSprinkles. Broken clouds.1 mph87%29.98 "HgN/A
11:20 AM45 °FLight rain. Partly sunny.5 mph93%29.98 "HgN/A
10:50 AM45 °FSprinkles. More clouds than sun.6 mph93%29.98 "Hg6 mi
10:20 AM43 °FSprinkles. More clouds than sun.2 mph100%29.98 "Hg5 mi
9:50 AM43 °FSprinkles. Broken clouds.5 mph93%29.98 "Hg5 mi
9:20 AM43 °FSprinkles. Broken clouds.6 mph93%29.98 "Hg5 mi
8:50 AM43 °FLight rain. Overcast.6 mph93%29.98 "HgN/A
8:20 AM45 °FLight rain. Mostly cloudy.3 mph87%29.95 "HgN/A
7:50 AM45 °FLight rain. Mostly cloudy.5 mph93%29.95 "HgN/A
7:20 AM45 °FSprinkles. Partly cloudy.2 mph93%29.95 "HgN/A
6:50 AM46 °FSprinkles. Passing clouds.2 mph82%29.92 "HgN/A
6:20 AM46 °FPassing clouds.2 mph76%29.92 "HgN/A
5:50 AM45 °FMostly cloudy.3 mph87%29.92 "HgN/A
5:20 AM45 °FOvercast.1 mph87%29.92 "HgN/A
4:50 AM45 °FOvercast.5 mph81%29.92 "HgN/A
4:20 AM43 °FOvercast.5 mph87%29.95 "HgN/A
3:50 AM43 °FPassing clouds.3 mph93%29.95 "HgN/A
3:20 AM45 °FPartly cloudy.3 mph87%29.95 "HgN/A
2:50 AM45 °FOvercast.2 mph87%29.98 "HgN/A
2:20 AM45 °FPassing clouds.3 mph81%29.98 "HgN/A
1:50 AM45 °FOvercast.6 mph81%29.95 "HgN/A
1:20 AM43 °FOvercast.6 mph93%29.98 "HgN/A
12:50 AM41 °FPassing clouds.3 mph93%29.98 "HgN/A
12:20 AM41 °FPassing clouds.6 mph93%29.98 "HgN/A
11:50 PM
Thu, Oct 20
43 °FPassing clouds.2 mph87%29.98 "HgN/A
11:20 PM43 °FPassing clouds.2 mph87%29.98 "HgN/A
10:50 PM43 °FOvercast.1 mph87%29.98 "HgN/A
10:20 PM43 °FPassing clouds.1 mph81%29.98 "HgN/A
9:50 PM45 °FQuite cool.5 mph76%29.95 "HgN/A
9:20 PM45 °FPassing clouds.3 mph76%29.98 "HgN/A
8:50 PM41 °FClear.1 mph87%29.98 "Hg10 mi
8:20 PM43 °FClear.2 mph87%29.98 "Hg10 mi
Weather by CustomWeather, © 2016

See weather overviewHow to use our weather pages